Wind_Speed
93 85 75 68 63 57 54 54 52 53 58 53 54 56 57 58 61 63 63 74 79 86 93 101 109 115 118 119 116 114 111 105 97 99 95 90 87 82 82 79 76 72 71 67 63
98 82 73 67 63 59 55 52 50 51 54 53 49 53 57 62 62 64 68 73 78 83 92 99 107 113 117 120 123 119 109 104 102 98 97 94 87 86 83 83 79 74 71 70 68
98 85 73 65 61 60 56 50 48 47 47 46 44 46 52 60 64 68 73 73 79 83 91 97 104 111 117 120 123 117 111 111 109 109 101 96 94 88 86 82 80 77 73 69 65
100 88 74 69 64 62 60 54 49 36 40 42 38 41 45 59 68 73 72 74 79 84 89 96 101 106 114 118 118 122 117 115 113 110 106 102 99 94 90 85 82 80 77 74 68
101 91 76 70 67 67 64 59 51 34 27 34 33 31 40 57 68 69 72 74 78 84 87 94 98 103 110 117 116 122 121 119 116 115 111 107 103 100 95 89 85 86 83 77 75
103 92 79 71 70 69 67 62 53 37 24 21 27 26 37 53 60 69 74 74 77 84 87 91 96 101 107 117 119 120 124 119 120 117 114 110 107 105 99 94 86 87 87 81 77
105 94 82 75 71 70 69 64 55 43 30 20 18 23 35 48 60 70 77 76 78 84 88 90 96 99 102 114 121 121 126 125 122 119 115 116 112 107 101 98 91 85 85 85 80
105 98 88 81 76 71 71 65 57 46 34 19 11 18 33 43 58 67 74 78 79 81 87 90 93 96 100 109 120 120 126 125 124 121 120 120 117 112 106 101 96 89 84 81 82
107 102 93 87 79 76 74 68 60 48 35 23 9 14 29 39 51 65 72 79 79 80 84 87 90 94 99 104 116 120 123 122 125 123 121 120 118 116 111 106 97 91 87 83 78
107 102 98 92 83 79 76 71 63 51 38 28 13 6 24 35 46 56 67 73 77 78 80 83 88 91 94 99 107 114 121 126 126 125 123 120 121 121 116 109 103 98 93 90 85
105 103 100 94 88 81 78 73 65 54 41 32 20 5 14 29 41 50 63 71 75 76 74 78 83 84 90 97 103 115 120 124 125 125 125 124 122 123 119 112 105 104 100 96 93
107 104 100 95 91 82 77 74 67 58 47 34 25 13 4 19 31 44 57 66 72 72 75 81 77 84 90 96 102 111 117 127 126 127 127 128 124 123 120 113 108 105 104 101 96
108 104 98 95 89 83 77 72 67 60 52 39 25 18 7 9 23 34 47 59 65 70 74 70 72 80 84 90 97 106 115 122 125 126 127 127 126 125 120 116 111 109 106 104 101
107 105 97 94 89 82 75 69 64 57 53 41 27 19 14 3 15 28 34 52 59 67 71 67 68 75 82 88 93 102 110 117 123 128 129 130 127 126 123 118 114 111 110 108 104
107 104 95 92 88 82 75 68 64 58 51 44 33 19 15 9 7 19 33 45 52 56 57 61 62 69 76 82 88 96 104 113 120 126 129 129 128 126 124 118 113 112 110 110 107
107 103 97 91 88 81 73 67 61 56 49 44 36 21 15 10 8 8 25 39 47 50 54 59 60 62 69 76 82 87 96 105 116 122 127 128 127 126 123 119 117 114 112 111 108
108 105 99 92 89 81 72 65 59 54 49 43 38 28 15 13 11 9 17 33 42 47 52 56 56 60 64 67 75 81 89 97 107 117 121 125 124 120 124 120 117 115 114 111 109
106 105 102 93 89 83 73 63 57 50 46 41 38 30 18 11 15 12 11 23 34 41 46 45 45 50 51 56 66 75 78 84 93 102 115 122 118 117 123 122 119 116 114 112 112
104 104 101 94 85 83 75 62 54 46 42 38 35 30 23 11 10 15 9 13 28 35 40 40 44 47 51 56 58 63 66 74 78 89 100 108 113 118 123 122 119 118 117 115 112
107 104 102 94 85 79 75 65 52 44 38 34 30 29 21 15 9 11 16 18 23 26 32 36 40 44 46 51 55 58 60 62 68 77 86 93 98 104 112 116 118 119 120 117 115
108 106 104 94 83 75 72 64 51 44 36 31 27 23 19 14 9 7 11 16 16 20 22 26 32 37 42 46 48 51 54 60 65 66 72 79 86 96 101 109 112 113 111 110 110
107 104 105 99 81 74 67 62 51 40 35 31 26 20 18 14 9 4 8 10 14 19 22 21 22 23 28 35 40 45 48 53 58 63 70 75 78 85 93 99 103 110 107 106 105
105 104 105 101 89 72 65 59 52 40 31 28 25 20 14 13 9 5 2 8 12 16 18 20 22 23 26 29 33 39 44 48 54 61 65 69 74 79 83 89 95 98 100 104 103
102 106 106 105 91 69 64 57 50 41 29 25 23 19 14 11 8 5 2 3 9 13 15 19 23 27 29 31 33 36 37 42 48 51 57 61 68 71 77 80 83 89 93 96 96
101 104 104 104 91 71 61 57 48 43 31 22 21 19 13 8 7 5 2 3 6 11 16 19 22 24 26 28 31 34 38 41 45 50 49 55 58 63 66 71 74 78 83 88 92
98 101 103 100 95 69 61 54 47 41 32 22 19 19 16 12 8 7 6 6 6 10 14 18 23 27 29 31 32 35 37 41 44 46 48 50 55 60 63 64 69 69 72 79 83
97 102 100 96 94 76 61 52 45 38 33 23 19 19 18 15 12 11 9 9 8 9 12 15 19 24 29 32 35 36 41 40 41 41 43 43 51 52 55 58 60 62 66 70 74
Wind_Direction
351 347 342 338 333 329 323 314 303 291 285 275 261 251 244 236 229 227 223 219 216 215 213 212 210 209 211 211 211 214 211 212 213 217 219 217 217 220 222 223 223 221 221 223 225
353 349 344 340 336 332 327 318 307 296 287 279 265 250 240 233 228 223 222 219 217 214 213 211 211 209 210 211 211 214 212 212 214 218 221 218 218 218 222 222 223 222 223 223 224
353 352 347 342 341 338 334 326 318 305 291 279 267 249 235 230 225 220 219 217 215 213 212 211 211 209 209 209 213 213 213 211 214 216 220 219 218 218 220 224 225 223 223 223 223
353 354 350 347 347 346 340 337 331 310 287 277 266 250 230 224 220 218 216 214 213 214 212 211 210 210 209 210 212 212 213 213 213 216 219 220 220 219 220 223 222 222 221 224 224
354 356 354 352 351 352 348 345 341 327 297 275 262 246 225 218 218 216 215 213 212 213 212 210 210 209 208 209 211 212 214 214 213 214 217 220 221 220 219 223 226 225 225 223 226
355 358 357 356 356 356 353 351 346 341 324 296 262 241 223 217 212 214 213 212 211 212 213 210 210 209 208 208 209 212 215 213 215 214 217 220 221 219 219 223 225 227 227 224 225
355 360 360 359 359 1 359 355 352 347 340 323 267 237 221 215 209 210 210 209 210 210 212 210 209 209 207 207 209 210 213 214 217 217 217 221 220 220 219 223 223 226 228 228 225
356 1 1 2 1 4 3 1 358 353 348 338 274 223 216 212 208 209 209 209 209 211 211 210 209 209 208 207 208 210 214 215 216 218 218 220 223 222 219 222 223 223 229 230 231
357 2 3 2 3 5 6 4 4 359 357 355 316 226 210 211 211 210 207 207 208 210 211 210 210 209 208 208 208 210 213 216 218 219 220 221 223 224 221 220 223 223 227 231 232
357 2 2 2 4 4 7 6 7 4 5 8 360 249 211 204 206 206 204 209 209 209 212 211 210 210 209 209 209 211 213 214 217 220 222 223 223 225 223 221 222 222 227 230 232
358 1 2 2 3 5 6 7 8 9 11 15 14 9 200 208 204 199 202 206 210 211 211 211 211 210 209 210 209 210 210 216 218 221 223 224 225 226 226 222 222 224 225 230 233
359 1 1 2 2 5 6 7 9 10 17 13 18 30 178 201 203 203 203 208 210 210 213 214 208 210 209 209 209 210 210 215 218 221 223 225 226 228 227 224 223 225 228 229 232
358 360 359 0 3 2 5 7 7 8 18 13 21 31 43 191 197 203 205 208 211 212 215 215 207 210 211 211 211 212 212 215 217 221 225 226 227 229 230 227 225 225 227 230 233
356 359 358 359 2 2 4 5 8 7 18 15 19 35 46 109 195 198 203 209 213 213 214 213 210 210 212 212 211 212 213 215 218 220 224 228 228 230 231 230 228 228 228 230 233
357 358 358 356 360 1 4 4 7 8 14 17 18 31 51 77 172 203 192 205 212 215 217 216 212 214 214 215 214 213 215 216 219 222 224 228 230 232 233 232 231 231 231 232 234
355 357 358 355 358 0 2 2 5 7 11 18 19 21 47 75 124 191 199 199 208 210 214 217 213 214 216 216 217 217 217 217 218 223 226 228 231 234 236 236 235 234 234 234 235
354 356 357 356 355 359 359 0 3 5 9 16 21 20 31 83 93 141 188 198 207 210 213 215 212 213 215 217 219 220 220 221 220 223 227 231 233 232 237 239 238 237 237 237 236
353 356 358 358 353 355 358 359 359 2 7 12 19 23 26 71 95 83 175 200 208 212 219 223 221 219 219 221 221 222 222 224 224 224 225 230 233 232 238 240 241 242 242 241 239
354 354 358 358 355 352 354 358 357 358 4 9 18 23 26 49 113 115 138 198 209 215 227 221 222 223 219 221 221 223 223 224 225 226 228 229 231 232 236 240 242 244 245 245 244
356 352 357 358 355 352 351 352 355 354 1 7 14 22 25 28 73 134 143 175 207 219 225 229 229 231 227 227 225 226 225 226 224 225 229 230 231 230 233 239 242 244 245 247 248
356 354 353 356 356 352 348 348 351 351 354 1 8 20 27 27 45 106 150 162 175 198 217 229 235 233 233 235 232 228 224 224 225 224 228 229 230 232 233 234 239 244 244 246 247
357 353 349 354 357 352 347 345 346 347 345 351 358 9 19 28 32 79 143 167 172 183 191 200 208 217 226 231 231 231 229 225 224 225 224 226 228 230 231 234 236 240 244 246 247
356 354 349 351 353 352 346 343 340 344 341 341 345 354 9 18 29 31 96 176 184 190 195 201 200 203 211 220 222 224 226 225 225 225 224 225 227 230 231 233 236 238 240 242 245
355 353 350 350 355 354 345 342 336 336 337 331 335 337 347 3 8 20 12 248 213 212 211 210 209 209 212 216 219 222 223 223 224 225 225 227 229 230 231 232 235 237 239 241 244
356 353 349 347 351 354 344 339 336 330 332 326 320 321 322 322 325 341 317 277 250 231 218 220 219 218 218 218 219 221 223 225 226 227 225 227 229 232 233 233 235 236 237 239 240
355 354 349 343 347 354 346 339 336 327 325 319 309 306 304 300 299 295 290 278 258 247 238 227 221 215 218 221 222 223 223 225 229 231 228 227 231 233 233 233 234 235 237 238 239
354 353 350 341 343 351 347 341 335 328 322 315 300 298 292 288 277 275 270 267 269 257 252 251 240 231 225 222 225 227 229 229 231 229 231 228 231 234 234 234 235 235 236 237 239
Height
10616 10594 10575 10559 10545 10532 10517 10503 10494 10483 10473 10476 10477 10479 10483 10491 10498 10507 10519 10523 10532 10544 10557 10570 10587 10606 10623 10643 10660 10674 10691 10714 10730 10726 10743 10759 10772 10780 10787 10794 10810 10819 10823 10833 10841
10608 10587 10566 10548 10533 10518 10502 10487 10474 10463 10452 10447 10452 10455 10462 10469 10479 10491 10496 10505 10518 10530 10541 10556 10570 10591 10610 10628 10641 10654 10687 10712 10718 10723 10727 10746 10760 10768 10778 10783 10800 10811 10818 10825 10832
10597 10577 10557 10539 10521 10504 10487 10471 10456 10442 10430 10425 10427 10433 10441 10449 10461 10468 10474 10489 10501 10513 10526 10540 10555 10573 10595 10612 10631 10656 10682 10687 10696 10700 10714 10732 10746 10760 10768 10777 10794 10803 10808 10815 10824
10587 10566 10545 10525 10507 10489 10470 10453 10439 10425 10413 10406 10408 10411 10422 10428 10435 10444 10460 10473 10487 10499 10512 10525 10542 10563 10586 10603 10622 10639 10653 10671 10682 10697 10702 10716 10730 10746 10756 10767 10779 10790 10799 10808 10812
10576 10556 10534 10514 10494 10475 10455 10437 10423 10412 10401 10393 10392 10396 10404 10408 10416 10437 10448 10462 10475 10484 10498 10515 10531 10550 10570 10592 10609 10626 10639 10654 10666 10679 10688 10700 10717 10731 10746 10756 10768 10780 10789 10798 10803
10567 10546 10525 10506 10486 10465 10445 10426 10411 10400 10391 10384 10379 10384 10389 10393 10410 10421 10433 10450 10463 10474 10485 10503 10520 10533 10552 10574 10592 10612 10623 10641 10650 10665 10679 10689 10702 10715 10734 10742 10756 10766 10776 10786 10794
10558 10536 10515 10496 10479 10460 10440 10420 10404 10391 10382 10375 10370 10372 10377 10382 10394 10404 10417 10435 10449 10458 10474 10490 10503 10522 10541 10561 10577 10590 10601 10623 10637 10656 10670 10672 10688 10706 10721 10730 10746 10757 10766 10776 10783
10551 10528 10508 10488 10472 10454 10435 10417 10400 10385 10376 10367 10363 10362 10365 10373 10384 10392 10409 10423 10437 10450 10461 10478 10496 10514 10530 10548 10562 10579 10590 10613 10627 10641 10656 10661 10674 10689 10707 10719 10732 10746 10754 10763 10772
10546 10524 10503 10484 10465 10449 10431 10415 10399 10383 10371 10364 10358 10357 10360 10367 10376 10385 10400 10413 10428 10441 10452 10471 10488 10503 10519 10537 10555 10568 10589 10611 10615 10629 10639 10654 10663 10673 10691 10707 10725 10738 10745 10752 10764
10542 10522 10501 10482 10463 10447 10431 10416 10400 10384 10372 10364 10359 10356 10357 10362 10369 10382 10398 10411 10422 10433 10445 10463 10479 10496 10514 10531 10556 10574 10583 10591 10599 10613 10628 10643 10651 10655 10677 10696 10709 10721 10731 10739 10751
10542 10520 10501 10480 10463 10447 10432 10418 10403 10389 10375 10367 10361 10358 10358 10363 10368 10380 10392 10403 10416 10428 10442 10454 10476 10499 10510 10523 10543 10556 10571 10579 10586 10600 10615 10627 10633 10642 10659 10686 10700 10709 10716 10724 10734
10536 10520 10500 10484 10465 10448 10435 10420 10406 10394 10379 10371 10365 10361 10362 10365 10372 10380 10390 10400 10410 10427 10436 10441 10472 10481 10495 10508 10527 10540 10556 10562 10573 10583 10595 10607 10623 10628 10646 10673 10689 10696 10707 10716 10725
10538 10521 10501 10484 10470 10452 10438 10425 10411 10399 10385 10378 10371 10366 10367 10370 10373 10380 10389 10398 10408 10421 10430 10447 10463 10475 10490 10504 10518 10531 10543 10555 10566 10576 10586 10597 10609 10617 10636 10656 10672 10684 10694 10705 10713
10537 10523 10504 10484 10473 10457 10444 10432 10419 10407 10393 10386 10377 10372 10371 10374 10377 10380 10389 10397 10404 10414 10425 10441 10457 10469 10480 10492 10506 10521 10534 10547 10553 10563 10571 10580 10597 10607 10619 10639 10659 10671 10683 10691 10703
10541 10523 10506 10485 10474 10459 10446 10435 10423 10412 10403 10392 10385 10378 10377 10377 10382 10384 10389 10394 10401 10414 10430 10441 10455 10466 10477 10487 10499 10511 10523 10536 10542 10550 10559 10571 10582 10597 10606 10629 10646 10658 10668 10678 10688
10542 10525 10509 10488 10473 10463 10450 10438 10427 10418 10409 10399 10392 10386 10382 10381 10383 10388 10391 10395 10402 10412 10422 10433 10448 10461 10469 10482 10493 10506 10516 10525 10535 10541 10552 10564 10574 10587 10601 10617 10626 10641 10652 10662 10674
10541 10526 10510 10490 10474 10467 10453 10441 10432 10423 10413 10405 10398 10392 10388 10384 10386 10389 10393 10397 10404 10411 10420 10426 10439 10451 10461 10476 10486 10496 10504 10514 10527 10537 10552 10552 10562 10591 10585 10599 10612 10624 10635 10649 10662
10543 10527 10510 10493 10473 10465 10457 10445 10436 10428 10420 10410 10404 10398 10393 10391 10390 10393 10396 10400 10405 10412 10420 10428 10440 10450 10463 10472 10478 10485 10496 10507 10518 10535 10538 10540 10559 10581 10573 10584 10596 10607 10618 10629 10641
10545 10528 10511 10495 10480 10462 10457 10449 10440 10433 10423 10416 10409 10404 10400 10397 10396 10395 10400 10403 10408 10414 10418 10426 10434 10442 10452 10459 10467 10476 10487 10496 10508 10518 10523 10533 10549 10562 10564 10569 10581 10590 10598 10608 10620
10548 10525 10509 10496 10482 10466 10455 10448 10441 10435 10427 10421 10414 10409 10406 10404 10402 10400 10401 10405 10409 10414 10419 10423 10429 10436 10444 10451 10459 10465 10473 10485 10496 10503 10510 10522 10535 10547 10553 10555 10563 10572 10578 10591 10604
10546 10523 10507 10498 10482 10469 10456 10447 10438 10432 10428 10423 10419 10414 10410 10408 10406 10405 10405 10407 10409 10413 10416 10420 10425 10429 10435 10441 10447 10454 10465 10470 10476 10490 10498 10506 10519 10526 10532 10538 10544 10549 10561 10577 10585
10543 10522 10506 10494 10483 10470 10455 10446 10439 10431 10425 10421 10418 10415 10412 10410 10408 10409 10408 10408 10409 10412 10415 10417 10420 10425 10427 10431 10437 10444 10450 10458 10467 10475 10481 10488 10499 10504 10514 10520 10530 10535 10545 10557 10563
10542 10524 10503 10491 10482 10466 10455 10444 10436 10430 10425 10421 10417 10415 10413 10411 10409 10408 10409 10409 10410 10412 10413 10414 10416 10418 10422 10426 10430 10434 10439 10447 10455 10460 10468 10476 10484 10490 10499 10507 10513 10520 10530 10538 10546
10542 10524 10503 10487 10478 10466 10452 10442 10435 10427 10422 10418 10415 10412 10410 10409 10408 10408 10408 10408 10409 10410 10411 10413 10414 10417 10420 10422 10426 10430 10435 10441 10447 10452 10457 10465 10470 10475 10481 10488 10494 10501 10510 10521 10531
10540 10522 10501 10482 10469 10463 10451 10440 10432 10425 10418 10416 10413 10409 10407 10406 10405 10405 10405 10406 10406 10407 10409 10410 10411 10413 10415 10418 10420 10424 10428 10433 10436 10441 10452 10454 10460 10464 10470 10477 10483 10488 10497 10507 10517
10539 10522 10500 10477 10464 10455 10446 10436 10428 10421 10415 10411 10408 10406 10403 10402 10401 10401 10401 10401 10402 10403 10403 10404 10406 10408 10409 10411 10414 10417 10421 10424 10427 10433 10439 10445 10448 10451 10457 10464 10469 10480 10488 10495 10503
10534 10515 10499 10475 10458 10450 10439 10431 10422 10416 10412 10406 10404 10402 10401 10399 10397 10396 10397 10396 10397 10397 10398 10399 10400 10402 10403 10405 10408 10410 10411 10416 10421 10425 10428 10435 10436 10442 10447 10453 10461 10470 10476 10483 10489